Location: Ryley
(53.2913°N, 112.4267°W)
Time: 11:06:27
(UTC+00:00)

ISS - Visible Passes

Search period start: 05 December 2021 00:00
Search period end: 15 December 2021 00:00
Orbit: 417 x 422 km, 51.6° (Epoch: 05 December)

Date Brightness Start Highest point End Pass type
(mag) Time Alt. Az. Time Alt. Az. Time Alt. Az.
05 Dec -2.5 00:43:20 10° W 00:46:33 40° SSW 00:49:45 10° SE visible
05 Dec -0.8 02:21:06 10° WSW 02:22:44 13° SW 02:22:59 13° SW visible
05 Dec -2.8 23:55:56 10° W 23:59:15 50° SSW 00:02:32 10° ESE visible
06 Dec -1.1 01:33:10 10° W 01:35:33 18° SW 01:37:56 10° S visible
07 Dec -1.4 00:45:32 10° W 00:48:21 24° SSW 00:51:08 10° SSE visible
07 Dec -1.8 23:58:01 10° W 00:01:05 31° SSW 00:04:08 10° SE visible
09 Dec -0.5 00:48:21 10° WSW 00:49:56 13° SW 00:51:32 10° S visible
10 Dec -0.7 00:00:23 10° W 00:02:45 18° SW 00:05:07 10° S visible
